Time,TemperatureF,DewpointF,PressureIn,WindDirection,WindDirectionDegrees,WindSpeedMPH,WindSpeedGustMPH,Humidity,HourlyPrecipIn,Conditions,Clouds,dailyrainin,SoftwareType,DateUTC
2013-02-22 00:00:00,32.6,19.0,30.05,NNW,343,0.0,0.0,57,0.00,,,0.22,Wunderground v.1.15,2013-02-22 07:00:00,
2013-02-22 00:05:00,32.5,19.3,30.06,NNW,343,0.0,0.0,58,0.00,,,0.00,Wunderground v.1.15,2013-02-22 07:05:00,
2013-02-22 00:10:00,32.5,19.7,30.06,NNW,343,0.0,0.0,59,0.00,,,0.00,Wunderground v.1.15,2013-02-22 07:10:00,
2013-02-22 00:15:00,32.5,19.7,30.06,NNW,343,0.0,0.0,59,0.00,,,0.00,Wunderground v.1.15,2013-02-22 07:15:00,
2013-02-22 00:25:00,32.6,19.8,30.06,NNW,337,1.0,1.0,59,0.00,,,0.00,Wunderground v.1.15,2013-02-22 07:25:00,
2013-02-22 00:30:00,32.6,20.2,30.06,NNW,337,0.0,0.0,60,0.00,,,0.00,Wunderground v.1.15,2013-02-22 07:30:00,
2013-02-22 00:40:00,32.4,20.0,30.07,NNW,338,0.0,1.0,60,0.00,,,0.00,Wunderground v.1.15,2013-02-22 07:40:00,
2013-02-22 00:45:00,32.3,20.0,30.07,SSE,165,1.0,1.0,60,0.00,,,0.00,Wunderground v.1.15,2013-02-22 07:45:00,
2013-02-22 00:50:00,32.2,19.9,30.06,South,179,1.0,3.0,60,0.00,,,0.00,Wunderground v.1.15,2013-02-22 07:50:00,
2013-02-22 00:55:00,32.2,19.9,30.06,South,178,1.0,3.0,60,0.00,,,0.00,Wunderground v.1.15,2013-02-22 07:55:00,
2013-02-22 01:00:00,32.2,19.9,30.06,South,178,1.0,1.0,60,0.00,,,0.00,Wunderground v.1.15,2013-02-22 08:00:00,
2013-02-22 01:04:00,32.2,19.9,30.06,South,178,0.0,1.0,60,0.00,,,0.00,Wunderground v.1.15,2013-02-22 08:04:00,
2013-02-22 01:10:00,32.1,19.8,30.06,South,178,0.0,0.0,60,0.00,,,0.00,Wunderground v.1.15,2013-02-22 08:10:00,
2013-02-22 01:15:00,32.0,19.7,30.06,South,178,0.0,0.0,60,0.00,,,0.00,Wunderground v.1.15,2013-02-22 08:15:00,
2013-02-22 01:25:00,31.7,19.8,30.06,South,178,0.0,0.0,61,0.00,,,0.00,Wunderground v.1.15,2013-02-22 08:25:00,
2013-02-22 01:30:00,31.5,20.0,30.06,South,178,0.0,1.0,62,0.00,,,0.00,Wunderground v.1.15,2013-02-22 08:30:00,
2013-02-22 01:35:00,31.3,20.2,30.06,South,178,0.0,1.0,63,0.00,,,0.00,Wunderground v.1.15,2013-02-22 08:35:00,
2013-02-22 01:40:00,31.2,20.4,30.06,South,178,0.0,0.0,64,0.00,,,0.00,Wunderground v.1.15,2013-02-22 08:40:00,
2013-02-22 01:44:00,31.1,20.0,30.06,South,178,0.0,0.0,63,0.00,,,0.00,Wunderground v.1.15,2013-02-22 08:44:00,
2013-02-22 01:49:00,30.9,20.1,30.06,South,178,0.0,0.0,64,0.00,,,0.00,Wunderground v.1.15,2013-02-22 08:49:00,
2013-02-22 01:55:00,30.8,20.4,30.06,South,178,0.0,0.0,65,0.00,,,0.00,Wunderground v.1.15,2013-02-22 08:55:00,
2013-02-22 02:00:00,30.6,20.2,30.06,South,178,0.0,0.0,65,0.00,,,0.00,Wunderground v.1.15,2013-02-22 09:00:00,
2013-02-22 02:10:00,30.2,19.8,30.06,South,178,0.0,0.0,65,0.00,,,0.00,Wunderground v.1.15,2013-02-22 09:10:00,
2013-02-22 02:15:00,29.9,19.9,30.06,South,178,0.0,0.0,66,0.00,,,0.00,Wunderground v.1.15,2013-02-22 09:15:00,
2013-02-22 02:20:00,29.7,20.1,30.06,South,178,0.0,0.0,67,0.00,,,0.00,Wunderground v.1.15,2013-02-22 09:20:00,
2013-02-22 02:25:00,29.5,19.9,30.06,South,178,0.0,0.0,67,0.00,,,0.00,Wunderground v.1.15,2013-02-22 09:25:00,
2013-02-22 02:30:00,29.3,20.0,30.06,South,178,0.0,0.0,68,0.00,,,0.00,Wunderground v.1.15,2013-02-22 09:30:00,
2013-02-22 02:35:00,29.2,19.9,30.06,South,178,0.0,0.0,68,0.00,,,0.00,Wunderground v.1.15,2013-02-22 09:35:00,
2013-02-22 02:39:00,29.0,20.1,30.06,South,178,0.0,0.0,69,0.00,,,0.00,Wunderground v.1.15,2013-02-22 09:39:00,
2013-02-22 02:45:00,29.0,20.1,30.06,South,178,0.0,0.0,69,0.00,,,0.00,Wunderground v.1.15,2013-02-22 09:45:00,
2013-02-22 02:50:00,28.9,20.0,30.06,South,178,0.0,0.0,69,0.00,,,0.00,Wunderground v.1.15,2013-02-22 09:50:00,
2013-02-22 02:55:00,28.8,20.2,30.05,South,178,0.0,0.0,70,0.00,,,0.00,Wunderground v.1.15,2013-02-22 09:55:00,
2013-02-22 03:00:00,28.8,20.2,30.05,South,178,0.0,0.0,70,0.00,,,0.00,Wunderground v.1.15,2013-02-22 10:00:00,
2013-02-22 03:05:00,28.8,19.9,30.05,South,178,0.0,0.0,69,0.00,,,0.00,Wunderground v.1.15,2013-02-22 10:05:00,
2013-02-22 03:10:00,28.8,20.2,30.05,South,178,0.0,0.0,70,0.00,,,0.00,Wunderground v.1.15,2013-02-22 10:10:00,
2013-02-22 03:15:00,28.8,19.9,30.05,South,178,0.0,0.0,69,0.00,,,0.00,Wunderground v.1.15,2013-02-22 10:15:00,
2013-02-22 03:20:00,28.8,19.9,30.05,South,178,0.0,0.0,69,0.00,,,0.00,Wunderground v.1.15,2013-02-22 10:20:00,
2013-02-22 03:25:00,28.9,20.0,30.05,South,178,0.0,0.0,69,0.00,,,0.00,Wunderground v.1.15,2013-02-22 10:25:00,
2013-02-22 03:29:00,29.2,19.9,30.05,South,178,0.0,0.0,68,0.00,,,0.00,Wunderground v.1.15,2013-02-22 10:29:00,
2013-02-22 03:34:00,29.5,20.2,30.06,South,178,0.0,0.0,68,0.00,,,0.00,Wunderground v.1.15,2013-02-22 10:34:00,
2013-02-22 03:39:00,29.8,20.2,30.05,South,178,0.0,2.0,67,0.00,,,0.00,Wunderground v.1.15,2013-02-22 10:39:00,
2013-02-22 03:45:00,30.1,20.1,30.05,South,178,0.0,2.0,66,0.00,,,0.00,Wunderground v.1.15,2013-02-22 10:45:00,
2013-02-22 03:50:00,30.2,20.2,30.06,South,178,1.0,1.0,66,0.00,,,0.00,Wunderground v.1.15,2013-02-22 10:50:00,
2013-02-22 03:55:00,30.2,19.8,30.06,South,178,0.0,1.0,65,0.00,,,0.00,Wunderground v.1.15,2013-02-22 10:55:00,
2013-02-22 04:00:00,30.1,19.7,30.06,South,178,0.0,0.0,65,0.00,,,0.00,Wunderground v.1.15,2013-02-22 11:00:00,
2013-02-22 04:05:00,30.0,19.7,30.06,South,178,0.0,0.0,65,0.00,,,0.00,Wunderground v.1.15,2013-02-22 11:05:00,
2013-02-22 04:14:00,29.8,19.5,30.06,South,178,0.0,1.0,65,0.00,,,0.00,Wunderground v.1.15,2013-02-22 11:14:00,
2013-02-22 04:20:00,29.7,19.7,30.06,South,178,0.0,1.0,66,0.00,,,0.00,Wunderground v.1.15,2013-02-22 11:20:00,
2013-02-22 04:25:00,29.8,19.8,30.06,South,179,1.0,1.0,66,0.00,,,0.00,Wunderground v.1.15,2013-02-22 11:25:00,
2013-02-22 04:30:00,29.8,19.5,30.07,South,179,1.0,1.0,65,0.00,,,0.00,Wunderground v.1.15,2013-02-22 11:30:00,
2013-02-22 04:35:00,29.8,19.8,30.06,South,179,0.0,1.0,66,0.00,,,0.00,Wunderground v.1.15,2013-02-22 11:35:00,
2013-02-22 04:40:00,29.8,19.8,30.07,South,178,0.0,0.0,66,0.00,,,0.00,Wunderground v.1.15,2013-02-22 11:40:00,
2013-02-22 04:45:00,29.9,19.9,30.07,South,179,0.0,0.0,66,0.00,,,0.00,Wunderground v.1.15,2013-02-22 11:45:00,
2013-02-22 04:50:00,30.0,19.7,30.07,South,178,0.0,0.0,65,0.00,,,0.00,Wunderground v.1.15,2013-02-22 11:50:00,
2013-02-22 04:59:00,29.9,19.6,30.07,South,178,0.0,0.0,65,0.00,,,0.00,Wunderground v.1.15,2013-02-22 11:59:00,
2013-02-22 05:10:00,29.8,19.5,30.07,South,178,0.0,1.0,65,0.00,,,0.00,Wunderground v.1.15,2013-02-22 12:10:00,
2013-02-22 05:15:00,29.9,19.9,30.08,South,178,0.0,2.0,66,0.00,,,0.00,Wunderground v.1.15,2013-02-22 12:15:00,
2013-02-22 05:20:00,29.9,19.9,30.08,South,178,0.0,1.0,66,0.00,,,0.00,Wunderground v.1.15,2013-02-22 12:20:00,
2013-02-22 05:25:00,29.9,19.9,30.08,South,178,0.0,1.0,66,0.00,,,0.00,Wunderground v.1.15,2013-02-22 12:25:00,
2013-02-22 05:30:00,29.8,19.8,30.08,South,175,0.0,0.0,66,0.00,,,0.00,Wunderground v.1.15,2013-02-22 12:30:00,
2013-02-22 05:35:00,29.8,19.8,30.08,South,175,0.0,1.0,66,0.00,,,0.00,Wunderground v.1.15,2013-02-22 12:35:00,
2013-02-22 05:40:00,29.8,19.8,30.08,South,175,0.0,0.0,66,0.00,,,0.00,Wunderground v.1.15,2013-02-22 12:40:00,
2013-02-22 05:44:00,29.8,20.2,30.08,South,174,0.0,2.0,67,0.00,,,0.00,Wunderground v.1.15,2013-02-22 12:44:00,
2013-02-22 05:49:00,29.7,20.1,30.08,South,174,0.0,0.0,67,0.00,,,0.00,Wunderground v.1.15,2013-02-22 12:49:00,
2013-02-22 05:55:00,29.7,20.1,30.08,South,174,0.0,1.0,67,0.00,,,0.00,Wunderground v.1.15,2013-02-22 12:55:00,
2013-02-22 06:00:00,29.7,20.1,30.08,South,174,0.0,0.0,67,0.00,,,0.00,Wunderground v.1.15,2013-02-22 13:00:00,
2013-02-22 06:05:00,29.6,20.0,30.08,South,174,0.0,0.0,67,0.00,,,0.00,Wunderground v.1.15,2013-02-22 13:05:00,
2013-02-22 06:15:00,29.7,20.1,30.08,South,174,0.0,0.0,67,0.00,,,0.00,Wunderground v.1.15,2013-02-22 13:15:00,
2013-02-22 06:20:00,29.7,20.1,30.08,South,174,0.0,0.0,67,0.00,,,0.00,Wunderground v.1.15,2013-02-22 13:20:00,
2013-02-22 06:24:00,29.7,19.7,30.08,South,174,0.0,0.0,66,0.00,,,0.00,Wunderground v.1.15,2013-02-22 13:24:00,
2013-02-22 06:29:00,29.8,19.8,30.08,South,174,0.0,2.0,66,0.00,,,0.00,Wunderground v.1.15,2013-02-22 13:29:00,
2013-02-22 06:34:00,29.7,19.7,30.08,South,174,0.0,2.0,66,0.00,,,0.00,Wunderground v.1.15,2013-02-22 13:34:00,
2013-02-22 06:39:00,29.6,19.6,30.08,South,174,0.0,1.0,66,0.00,,,0.00,Wunderground v.1.15,2013-02-22 13:39:00,
2013-02-22 06:45:00,29.6,19.6,30.08,South,174,0.0,1.0,66,0.00,,,0.00,Wunderground v.1.15,2013-02-22 13:45:00,
2013-02-22 06:50:00,29.4,19.4,30.08,South,174,0.0,0.0,66,0.00,,,0.00,Wunderground v.1.15,2013-02-22 13:50:00,
2013-02-22 06:55:00,29.3,19.7,30.08,South,174,0.0,0.0,67,0.00,,,0.00,Wunderground v.1.15,2013-02-22 13:55:00,
2013-02-22 07:00:00,29.2,19.6,30.09,South,174,0.0,0.0,67,0.00,,,0.00,Wunderground v.1.15,2013-02-22 14:00:00,
2013-02-22 07:05:00,29.1,19.5,30.09,South,174,0.0,0.0,67,0.00,,,0.00,Wunderground v.1.15,2013-02-22 14:05:00,
2013-02-22 07:10:00,29.1,19.5,30.09,South,174,0.0,0.0,67,0.00,,,0.00,Wunderground v.1.15,2013-02-22 14:10:00,
2013-02-22 07:15:00,29.2,19.6,30.09,South,174,0.0,0.0,67,0.00,,,0.00,Wunderground v.1.15,2013-02-22 14:15:00,
2013-02-22 07:20:00,29.2,19.6,30.09,South,174,0.0,0.0,67,0.00,,,0.00,Wunderground v.1.15,2013-02-22 14:20:00,
2013-02-22 07:25:00,29.3,19.3,30.10,South,174,0.0,0.0,66,0.00,,,0.00,Wunderground v.1.15,2013-02-22 14:25:00,
2013-02-22 07:35:00,29.5,19.5,30.10,South,174,0.0,1.0,66,0.00,,,0.00,Wunderground v.1.15,2013-02-22 14:35:00,
2013-02-22 07:40:00,29.8,19.8,30.11,South,174,0.0,0.0,66,0.00,,,0.00,Wunderground v.1.15,2013-02-22 14:40:00,
2013-02-22 07:45:00,30.2,20.2,30.11,South,174,0.0,0.0,66,0.00,,,0.00,Wunderground v.1.15,2013-02-22 14:45:00,
2013-02-22 07:55:00,30.7,20.3,30.12,South,174,0.0,2.0,65,0.00,,,0.00,Wunderground v.1.15,2013-02-22 14:55:00,
2013-02-22 08:04:00,31.2,20.1,30.12,South,169,1.0,2.0,63,0.00,,,0.00,Wunderground v.1.15,2013-02-22 15:04:00,
2013-02-22 08:10:00,31.4,20.2,30.12,South,190,1.0,2.0,63,0.00,,,0.00,Wunderground v.1.15,2013-02-22 15:10:00,
2013-02-22 08:20:00,31.7,20.2,30.13,SSW,202,1.0,2.0,62,0.00,,,0.00,Wunderground v.1.15,2013-02-22 15:20:00,
2013-02-22 08:30:00,31.9,20.3,30.13,SSW,209,1.0,1.0,62,0.00,,,0.00,Wunderground v.1.15,2013-02-22 15:30:00,
2013-02-22 08:35:00,32.1,20.5,30.13,SSW,202,1.0,1.0,62,0.00,,,0.00,Wunderground v.1.15,2013-02-22 15:35:00,
2013-02-22 08:40:00,32.3,20.7,30.13,SSW,197,1.0,1.0,62,0.00,,,0.00,Wunderground v.1.15,2013-02-22 15:40:00,
2013-02-22 08:45:00,32.5,20.9,30.13,SSW,207,1.0,1.0,62,0.00,,,0.00,Wunderground v.1.15,2013-02-22 15:45:00,
2013-02-22 08:50:00,32.8,21.2,30.13,SW,221,2.0,2.0,62,0.00,,,0.00,Wunderground v.1.15,2013-02-22 15:50:00,
2013-02-22 08:55:00,32.9,21.7,30.13,SSW,209,1.0,2.0,63,0.00,,,0.00,Wunderground v.1.15,2013-02-22 15:55:00,
2013-02-22 08:59:00,33.2,21.6,30.13,SSW,207,1.0,2.0,62,0.00,,,0.00,Wunderground v.1.15,2013-02-22 15:59:00,
2013-02-22 09:04:00,33.5,21.9,30.13,SSE,165,1.0,2.0,62,0.00,,,0.00,Wunderground v.1.15,2013-02-22 16:04:00,
2013-02-22 09:10:00,33.8,21.4,30.13,SSW,194,2.0,3.0,60,0.00,,,0.00,Wunderground v.1.15,2013-02-22 16:10:00,
2013-02-22 09:15:00,33.7,20.9,30.13,South,190,2.0,3.0,59,0.00,,,0.00,Wunderground v.1.15,2013-02-22 16:15:00,
2013-02-22 09:25:00,35.3,21.2,30.13,SW,229,2.0,2.0,56,0.00,,,0.00,Wunderground v.1.15,2013-02-22 16:25:00,
2013-02-22 09:30:00,35.8,21.2,30.13,SSW,192,2.0,9.0,55,0.00,,,0.00,Wunderground v.1.15,2013-02-22 16:30:00,
2013-02-22 09:35:00,35.5,20.5,30.13,South,184,3.0,9.0,54,0.00,,,0.00,Wunderground v.1.15,2013-02-22 16:35:00,
2013-02-22 09:40:00,35.2,20.2,30.13,SW,236,3.0,3.0,54,0.00,,,0.00,Wunderground v.1.15,2013-02-22 16:40:00,
2013-02-22 09:45:00,35.3,20.3,30.13,SSW,207,2.0,4.0,54,0.00,,,0.00,Wunderground v.1.15,2013-02-22 16:45:00,
2013-02-22 09:55:00,35.4,20.4,30.13,SSW,203,2.0,2.0,54,0.00,,,0.00,Wunderground v.1.15,2013-02-22 16:55:00,
2013-02-22 10:00:00,35.5,21.3,30.13,SSW,207,2.0,2.0,56,0.00,,,0.00,Wunderground v.1.15,2013-02-22 17:00:00,
2013-02-22 10:05:00,35.8,21.2,30.13,South,187,2.0,3.0,55,0.00,,,0.00,Wunderground v.1.15,2013-02-22 17:05:00,
2013-02-22 10:10:00,36.1,20.6,30.13,SE,130,2.0,3.0,53,0.00,,,0.00,Wunderground v.1.15,2013-02-22 17:10:00,
2013-02-22 10:15:00,36.3,20.8,30.13,South,178,2.0,4.0,53,0.00,,,0.00,Wunderground v.1.15,2013-02-22 17:15:00,
2013-02-22 10:25:00,38.7,22.6,30.13,SE,141,2.0,4.0,52,0.00,,,0.00,Wunderground v.1.15,2013-02-22 17:25:00,
2013-02-22 10:30:00,39.5,22.4,30.12,SSW,192,2.0,6.0,50,0.00,,,0.00,Wunderground v.1.15,2013-02-22 17:30:00,
2013-02-22 10:35:00,39.2,22.1,30.12,South,176,3.0,6.0,50,0.00,,,0.00,Wunderground v.1.15,2013-02-22 17:35:00,
2013-02-22 10:39:00,39.6,22.5,30.12,SSE,152,3.0,3.0,50,0.00,,,0.00,Wunderground v.1.15,2013-02-22 17:39:00,
2013-02-22 10:45:00,39.9,23.2,30.13,South,170,2.0,3.0,51,0.00,,,0.00,Wunderground v.1.15,2013-02-22 17:45:00,
2013-02-22 10:55:00,39.3,22.2,30.12,South,184,3.0,3.0,50,0.00,,,0.00,Wunderground v.1.15,2013-02-22 17:55:00,
2013-02-22 11:00:00,39.7,23.0,30.12,South,171,3.0,3.0,51,0.00,,,0.00,Wunderground v.1.15,2013-02-22 18:00:00,
2013-02-22 11:05:00,40.2,23.0,30.12,South,169,2.0,3.0,50,0.00,,,0.00,Wunderground v.1.15,2013-02-22 18:05:00,
2013-02-22 11:10:00,40.5,22.8,30.12,SSE,168,2.0,2.0,49,0.00,,,0.00,Wunderground v.1.15,2013-02-22 18:10:00,
2013-02-22 11:15:00,40.6,22.4,30.12,SSE,159,3.0,3.0,48,0.00,,,0.00,Wunderground v.1.15,2013-02-22 18:15:00,
2013-02-22 11:20:00,41.2,23.0,30.12,SSE,157,2.0,3.0,48,0.00,,,0.00,Wunderground v.1.15,2013-02-22 18:20:00,
2013-02-22 11:24:00,40.7,23.0,30.12,SSE,156,2.0,3.0,49,0.00,,,0.00,Wunderground v.1.15,2013-02-22 18:24:00,
2013-02-22 11:30:00,39.7,22.6,30.12,SE,137,3.0,3.0,50,0.00,,,0.00,Wunderground v.1.15,2013-02-22 18:30:00,
2013-02-22 11:35:00,39.5,21.9,30.11,SSE,163,3.0,3.0,49,0.00,,,0.00,Wunderground v.1.15,2013-02-22 18:35:00,
2013-02-22 11:40:00,39.8,22.2,30.11,South,169,2.0,2.0,49,0.00,,,0.00,Wunderground v.1.15,2013-02-22 18:40:00,
2013-02-22 12:20:00,40.4,22.2,30.09,South,180,1.0,-999.0,48,0.00,,,0.00,Wunderground v.1.15,2013-02-22 19:20:00,
2013-02-22 12:25:00,40.7,21.0,30.09,South,180,2.0,-999.0,45,0.00,,,0.00,Wunderground v.1.15,2013-02-22 19:25:00,
2013-02-22 12:30:00,40.9,22.2,30.09,SE,135,3.0,-999.0,47,0.00,,,0.00,Wunderground v.1.15,2013-02-22 19:30:00,
2013-02-22 12:35:00,41.9,23.1,30.08,SSW,203,3.0,-999.0,47,0.00,,,0.00,Wunderground v.1.15,2013-02-22 19:35:00,
2013-02-22 12:40:00,42.8,23.4,30.08,South,180,2.0,-999.0,46,0.00,,,0.00,Wunderground v.1.15,2013-02-22 19:40:00,
2013-02-22 12:45:00,43.3,23.4,30.08,South,180,2.0,-999.0,45,0.00,,,0.00,Wunderground v.1.15,2013-02-22 19:45:00,
2013-02-22 12:50:00,43.3,22.3,30.07,South,180,2.0,-999.0,43,0.00,,,0.00,Wunderground v.1.15,2013-02-22 19:50:00,
2013-02-22 12:55:00,43.4,23.4,30.07,South,180,3.0,-999.0,45,0.00,,,0.00,Wunderground v.1.15,2013-02-22 19:55:00,
2013-02-22 13:00:00,43.1,22.6,30.07,SSE,158,3.0,-999.0,44,0.00,,,0.00,Wunderground v.1.15,2013-02-22 20:00:00,
2013-02-22 13:05:00,43.4,22.9,30.06,SE,135,3.0,-999.0,44,0.00,,,0.00,Wunderground v.1.15,2013-02-22 20:05:00,
2013-02-22 13:10:00,43.5,22.5,30.06,SSE,158,2.0,-999.0,43,0.00,,,0.00,Wunderground v.1.15,2013-02-22 20:10:00,
2013-02-22 13:15:00,43.7,22.1,30.05,SE,135,3.0,-999.0,42,0.00,,,0.00,Wunderground v.1.15,2013-02-22 20:15:00,
2013-02-22 13:20:00,43.5,22.5,30.05,SSE,158,3.0,-999.0,43,0.00,,,0.00,Wunderground v.1.15,2013-02-22 20:20:00,
2013-02-22 13:25:00,44.1,21.9,30.05,SSW,203,3.0,-999.0,41,0.00,,,0.00,Wunderground v.1.15,2013-02-22 20:25:00,
2013-02-22 13:30:00,43.9,21.7,30.05,SSW,203,4.0,-999.0,41,0.00,,,0.00,Wunderground v.1.15,2013-02-22 20:30:00,
2013-02-22 13:35:00,43.6,22.0,30.04,SSW,203,3.0,-999.0,42,0.00,,,0.00,Wunderground v.1.15,2013-02-22 20:35:00,
2013-02-22 13:40:00,43.2,21.6,30.04,South,180,3.0,-999.0,42,0.00,,,0.00,Wunderground v.1.15,2013-02-22 20:40:00,
2013-02-22 13:45:00,43.0,20.9,30.04,South,180,3.0,-999.0,41,0.00,,,0.00,Wunderground v.1.15,2013-02-22 20:45:00,
2013-02-22 13:50:00,42.9,21.9,30.04,South,180,2.0,-999.0,43,0.00,,,0.00,Wunderground v.1.15,2013-02-22 20:50:00,
2013-02-22 13:55:00,42.7,21.2,30.04,South,180,1.0,-999.0,42,0.00,,,0.00,Wunderground v.1.15,2013-02-22 20:55:00,
2013-02-22 14:00:00,42.7,21.7,30.03,South,180,2.0,-999.0,43,0.00,,,0.00,Wunderground v.1.15,2013-02-22 21:00:00,
2013-02-22 14:05:00,42.5,21.5,30.03,SE,135,2.0,-999.0,43,0.00,,,0.00,Wunderground v.1.15,2013-02-22 21:05:00,
2013-02-22 14:10:00,42.5,21.0,30.03,SSE,158,2.0,-999.0,42,0.00,,,0.00,Wunderground v.1.15,2013-02-22 21:10:00,
2013-02-22 14:15:00,42.6,21.1,30.03,South,180,3.0,-999.0,42,0.00,,,0.00,Wunderground v.1.15,2013-02-22 21:15:00,
2013-02-22 14:20:00,42.7,21.2,30.02,ESE,113,1.0,-999.0,42,0.00,,,0.00,Wunderground v.1.15,2013-02-22 21:20:00,
2013-02-22 14:25:00,42.9,21.4,30.02,NNW,338,2.0,-999.0,42,0.00,,,0.00,Wunderground v.1.15,2013-02-22 21:25:00,
2013-02-22 14:30:00,42.8,20.7,30.03,ENE,68,2.0,-999.0,41,0.00,,,0.00,Wunderground v.1.15,2013-02-22 21:30:00,
2013-02-22 14:35:00,42.7,20.6,30.03,NNE,23,2.0,-999.0,41,0.00,,,0.00,Wunderground v.1.15,2013-02-22 21:35:00,
2013-02-22 14:40:00,42.9,20.8,30.03,NNE,23,2.0,-999.0,41,0.00,,,0.00,Wunderground v.1.15,2013-02-22 21:40:00,
2013-02-22 14:45:00,42.9,20.2,30.03,NNW,338,3.0,-999.0,40,0.00,,,0.00,Wunderground v.1.15,2013-02-22 21:45:00,
2013-02-22 14:50:00,42.5,19.3,30.03,NNE,23,4.0,-999.0,39,0.00,,,0.00,Wunderground v.1.15,2013-02-22 21:50:00,
2013-02-22 14:55:00,42.2,20.2,30.03,NNE,23,3.0,-999.0,41,0.00,,,0.00,Wunderground v.1.15,2013-02-22 21:55:00,
2013-02-22 15:00:00,42.3,19.7,30.03,NNE,23,1.0,-999.0,40,0.00,,,0.00,Wunderground v.1.15,2013-02-22 22:00:00,
2013-02-22 15:05:00,42.4,19.2,30.03,NNE,23,2.0,-999.0,39,0.00,,,0.00,Wunderground v.1.15,2013-02-22 22:05:00,
2013-02-22 15:10:00,42.4,19.2,30.03,NNE,23,2.0,-999.0,39,0.00,,,0.00,Wunderground v.1.15,2013-02-22 22:10:00,
2013-02-22 15:15:00,42.4,19.2,30.03,NNE,23,1.0,-999.0,39,0.00,,,0.00,Wunderground v.1.15,2013-02-22 22:15:00,
2013-02-22 15:20:00,42.5,19.3,30.03,NNE,23,1.0,-999.0,39,0.00,,,0.00,Wunderground v.1.15,2013-02-22 22:20:00,
2013-02-22 15:25:00,42.7,19.4,30.03,NNE,23,1.0,-999.0,39,0.00,,,0.00,Wunderground v.1.15,2013-02-22 22:25:00,
2013-02-22 15:30:00,42.7,18.8,30.03,NNW,338,2.0,-999.0,38,0.00,,,0.00,Wunderground v.1.15,2013-02-22 22:30:00,
2013-02-22 15:35:00,42.8,19.5,30.03,NW,315,1.0,-999.0,39,0.00,,,0.00,Wunderground v.1.15,2013-02-22 22:35:00,
2013-02-22 15:40:00,43.0,19.1,30.04,NW,315,2.0,-999.0,38,0.00,,,0.00,Wunderground v.1.15,2013-02-22 22:40:00,
2013-02-22 15:45:00,42.5,19.3,30.04,North,0,3.0,-999.0,39,0.00,,,0.00,Wunderground v.1.15,2013-02-22 22:45:00,
2013-02-22 15:50:00,42.0,20.0,30.04,NE,45,4.0,-999.0,41,0.00,,,0.00,Wunderground v.1.15,2013-02-22 22:50:00,
2013-02-22 15:55:00,41.8,20.4,30.04,NNE,23,1.0,-999.0,42,0.00,,,0.00,Wunderground v.1.15,2013-02-22 22:55:00,
2013-02-22 16:00:00,41.8,20.4,30.04,NNE,23,2.0,-999.0,42,0.00,,,0.00,Wunderground v.1.15,2013-02-22 23:00:00,
2013-02-22 16:05:00,41.8,20.4,30.04,North,0,3.0,-999.0,42,0.00,,,0.00,Wunderground v.1.15,2013-02-22 23:05:00,
2013-02-22 16:10:00,41.6,20.7,30.04,North,0,1.0,-999.0,43,0.00,,,0.00,Wunderground v.1.15,2013-02-22 23:10:00,
2013-02-22 16:15:00,41.7,20.8,30.04,North,0,1.0,-999.0,43,0.00,,,0.00,Wunderground v.1.15,2013-02-22 23:15:00,
2013-02-22 16:20:00,41.8,20.9,30.03,North,0,2.0,-999.0,43,0.00,,,0.00,Wunderground v.1.15,2013-02-22 23:20:00,
2013-02-22 16:25:00,41.9,20.4,30.03,North,0,0.0,-999.0,42,0.00,,,0.00,Wunderground v.1.15,2013-02-22 23:25:00,
2013-02-22 16:30:00,42.0,20.0,30.04,North,0,1.0,-999.0,41,0.00,,,0.00,Wunderground v.1.15,2013-02-22 23:30:00,
2013-02-22 16:35:00,42.0,19.4,30.04,North,0,0.0,-999.0,40,0.00,,,0.00,Wunderground v.1.15,2013-02-22 23:35:00,
2013-02-22 16:40:00,42.0,20.5,30.04,North,0,1.0,-999.0,42,0.00,,,0.00,Wunderground v.1.15,2013-02-22 23:40:00,
2013-02-22 16:45:00,42.0,17.6,30.04,North,0,2.0,-999.0,37,0.00,,,0.00,Wunderground v.1.15,2013-02-22 23:45:00,
2013-02-22 16:50:00,42.7,14.8,30.04,SW,225,4.0,-999.0,32,0.00,,,0.00,Wunderground v.1.15,2013-02-22 23:50:00,
2013-02-22 16:55:00,43.5,14.1,30.05,West,270,5.0,-999.0,30,0.00,,,0.00,Wunderground v.1.15,2013-02-22 23:55:00,
2013-02-22 17:00:00,43.8,13.6,30.04,West,270,3.0,-999.0,29,0.00,,,0.00,Wunderground v.1.15,2013-02-23 00:00:00,
2013-02-22 17:05:00,44.0,13.7,30.04,West,270,3.0,-999.0,29,0.00,,,0.00,Wunderground v.1.15,2013-02-23 00:05:00,
2013-02-22 17:10:00,44.0,12.9,30.05,SW,225,3.0,-999.0,28,0.00,,,0.00,Wunderground v.1.15,2013-02-23 00:10:00,
2013-02-22 17:15:00,43.8,13.6,30.05,West,270,4.0,-999.0,29,0.00,,,0.00,Wunderground v.1.15,2013-02-23 00:15:00,
2013-02-22 17:20:00,43.7,13.5,30.05,WNW,293,4.0,-999.0,29,0.00,,,0.00,Wunderground v.1.15,2013-02-23 00:20:00,
2013-02-22 17:25:00,43.3,13.1,30.05,West,270,3.0,-999.0,29,0.00,,,0.00,Wunderground v.1.15,2013-02-23 00:25:00,
2013-02-22 17:30:00,43.0,12.9,30.05,SW,225,3.0,-999.0,29,0.00,,,0.00,Wunderground v.1.15,2013-02-23 00:30:00,
2013-02-22 17:35:00,42.7,13.4,30.06,West,270,4.0,-999.0,30,0.00,,,0.00,Wunderground v.1.15,2013-02-23 00:35:00,
2013-02-22 17:40:00,42.4,12.3,30.06,West,270,3.0,-999.0,29,0.00,,,0.00,Wunderground v.1.15,2013-02-23 00:40:00,
2013-02-22 17:45:00,42.2,12.2,30.06,NNW,338,3.0,-999.0,29,0.00,,,0.00,Wunderground v.1.15,2013-02-23 00:45:00,
2013-02-22 17:50:00,41.9,11.9,30.07,WNW,293,3.0,-999.0,29,0.00,,,0.00,Wunderground v.1.15,2013-02-23 00:50:00,
2013-02-22 17:55:00,41.7,11.7,30.07,WNW,293,4.0,-999.0,29,0.00,,,0.00,Wunderground v.1.15,2013-02-23 00:55:00,
2013-02-22 18:00:00,41.5,13.1,30.07,WNW,293,3.0,-999.0,31,0.00,,,0.00,Wunderground v.1.15,2013-02-23 01:00:00,
2013-02-22 18:05:00,41.2,12.8,30.07,WNW,293,4.0,-999.0,31,0.00,,,0.00,Wunderground v.1.15,2013-02-23 01:05:00,
2013-02-22 18:10:00,40.9,13.3,30.08,WNW,293,4.0,-999.0,32,0.00,,,0.00,Wunderground v.1.15,2013-02-23 01:10:00,
2013-02-22 18:15:00,40.7,12.4,30.08,WNW,293,4.0,-999.0,31,0.00,,,0.00,Wunderground v.1.15,2013-02-23 01:15:00,
2013-02-22 18:20:00,40.6,13.0,30.08,West,270,4.0,-999.0,32,0.00,,,0.00,Wunderground v.1.15,2013-02-23 01:20:00,
2013-02-22 18:25:00,40.4,12.8,30.09,West,270,2.0,-999.0,32,0.00,,,0.00,Wunderground v.1.15,2013-02-23 01:25:00,
2013-02-22 18:30:00,40.4,12.8,30.09,West,270,3.0,-999.0,32,0.00,,,0.00,Wunderground v.1.15,2013-02-23 01:30:00,
2013-02-22 18:35:00,40.3,12.7,30.09,WNW,293,4.0,-999.0,32,0.00,,,0.00,Wunderground v.1.15,2013-02-23 01:35:00,
2013-02-22 18:40:00,40.2,12.6,30.09,NW,315,3.0,-999.0,32,0.00,,,0.00,Wunderground v.1.15,2013-02-23 01:40:00,
2013-02-22 18:45:00,40.1,12.6,30.10,WNW,293,4.0,-999.0,32,0.00,,,0.00,Wunderground v.1.15,2013-02-23 01:45:00,
2013-02-22 18:50:00,39.9,12.4,30.10,WNW,293,4.0,-999.0,32,0.00,,,0.00,Wunderground v.1.15,2013-02-23 01:50:00,
2013-02-22 18:55:00,39.9,13.1,30.11,NW,315,5.0,-999.0,33,0.00,,,0.00,Wunderground v.1.15,2013-02-23 01:55:00,
2013-02-22 19:00:00,39.3,17.5,30.12,NNW,338,5.0,-999.0,41,0.00,,,0.00,Wunderground v.1.15,2013-02-23 02:00:00,
2013-02-22 19:05:00,38.2,19.2,30.12,North,0,6.0,-999.0,46,0.00,,,0.00,Wunderground v.1.15,2013-02-23 02:05:00,
2013-02-22 19:10:00,37.1,20.2,30.13,NW,315,5.0,-999.0,50,0.00,,,0.00,Wunderground v.1.15,2013-02-23 02:10:00,
2013-02-22 19:15:00,36.4,20.4,30.13,NW,315,4.0,-999.0,52,0.00,,,0.00,Wunderground v.1.15,2013-02-23 02:15:00,
2013-02-22 19:20:00,35.9,20.4,30.14,WNW,293,5.0,-999.0,53,0.00,,,0.00,Wunderground v.1.15,2013-02-23 02:20:00,
2013-02-22 19:25:00,35.5,20.5,30.14,WNW,293,2.0,-999.0,54,0.00,,,0.00,Wunderground v.1.15,2013-02-23 02:25:00,
2013-02-22 19:30:00,35.2,19.8,30.15,NW,315,5.0,-999.0,53,0.00,,,0.00,Wunderground v.1.15,2013-02-23 02:30:00,
2013-02-22 19:35:00,34.9,19.0,30.15,NNW,338,5.0,-999.0,52,0.00,,,0.00,Wunderground v.1.15,2013-02-23 02:35:00,
2013-02-22 19:40:00,34.7,19.3,30.16,North,0,4.0,-999.0,53,0.00,,,0.00,Wunderground v.1.15,2013-02-23 02:40:00,
2013-02-22 19:45:00,34.5,19.1,30.16,NW,315,3.0,-999.0,53,0.00,,,0.00,Wunderground v.1.15,2013-02-23 02:45:00,
2013-02-22 19:50:00,34.4,19.5,30.16,WNW,293,4.0,-999.0,54,0.00,,,0.00,Wunderground v.1.15,2013-02-23 02:50:00,
2013-02-22 19:55:00,34.2,19.3,30.16,NW,315,4.0,-999.0,54,0.00,,,0.00,Wunderground v.1.15,2013-02-23 02:55:00,
2013-02-22 20:00:00,33.7,19.7,30.16,NW,315,5.0,-999.0,56,0.00,,,0.00,Wunderground v.1.15,2013-02-23 03:00:00,
2013-02-22 20:05:00,33.4,19.8,30.16,NNW,338,4.0,-999.0,57,0.00,,,0.00,Wunderground v.1.15,2013-02-23 03:05:00,
2013-02-22 20:10:00,33.2,19.6,30.16,NW,315,2.0,-999.0,57,0.00,,,0.00,Wunderground v.1.15,2013-02-23 03:10:00,
2013-02-22 20:20:00,33.9,17.7,30.17,NNW,338,2.0,-999.0,51,0.00,,,0.00,Wunderground v.1.15,2013-02-23 03:20:00,
2013-02-22 20:25:00,34.3,18.5,30.17,WNW,293,2.0,-999.0,52,0.00,,,0.00,Wunderground v.1.15,2013-02-23 03:25:00,
2013-02-22 20:30:00,34.2,19.3,30.17,WNW,293,1.0,-999.0,54,0.00,,,0.00,Wunderground v.1.15,2013-02-23 03:30:00,
2013-02-22 20:35:00,34.0,19.5,30.18,West,270,2.0,-999.0,55,0.00,,,0.00,Wunderground v.1.15,2013-02-23 03:35:00,
2013-02-22 20:40:00,33.7,20.1,30.19,WNW,293,4.0,-999.0,57,0.00,,,0.00,Wunderground v.1.15,2013-02-23 03:40:00,
2013-02-22 20:45:00,33.6,20.4,30.19,WNW,293,3.0,-999.0,58,0.00,,,0.00,Wunderground v.1.15,2013-02-23 03:45:00,
2013-02-22 20:50:00,33.4,20.2,30.19,NW,315,3.0,-999.0,58,0.00,,,0.00,Wunderground v.1.15,2013-02-23 03:50:00,
2013-02-22 20:55:00,33.2,20.4,30.19,WNW,293,2.0,-999.0,59,0.00,,,0.00,Wunderground v.1.15,2013-02-23 03:55:00,
2013-02-22 21:00:00,33.2,20.4,30.19,WNW,293,1.0,-999.0,59,0.00,,,0.00,Wunderground v.1.15,2013-02-23 04:00:00,
2013-02-22 21:05:00,33.2,20.4,30.19,WNW,293,1.0,-999.0,59,0.00,,,0.00,Wunderground v.1.15,2013-02-23 04:05:00,
2013-02-22 21:10:00,33.1,20.3,30.19,WNW,293,0.0,-999.0,59,0.00,,,0.00,Wunderground v.1.15,2013-02-23 04:10:00,
2013-02-22 21:15:00,33.1,19.9,30.19,WNW,293,1.0,-999.0,58,0.00,,,0.00,Wunderground v.1.15,2013-02-23 04:15:00,
2013-02-22 21:20:00,33.1,19.9,30.19,WNW,293,1.0,-999.0,58,0.00,,,0.00,Wunderground v.1.15,2013-02-23 04:20:00,
2013-02-22 21:25:00,33.0,19.8,30.19,WNW,293,0.0,-999.0,58,0.00,,,0.00,Wunderground v.1.15,2013-02-23 04:25:00,
2013-02-22 21:30:00,32.9,19.7,30.20,WNW,293,0.0,-999.0,58,0.00,,,0.00,Wunderground v.1.15,2013-02-23 04:30:00,
2013-02-22 21:35:00,32.8,19.6,30.20,WNW,293,0.0,-999.0,58,0.00,,,0.00,Wunderground v.1.15,2013-02-23 04:35:00,
2013-02-22 21:40:00,32.8,19.6,30.20,WNW,293,0.0,-999.0,58,0.00,,,0.00,Wunderground v.1.15,2013-02-23 04:40:00,
2013-02-22 21:45:00,32.6,19.4,30.20,WNW,293,0.0,-999.0,58,0.00,,,0.00,Wunderground v.1.15,2013-02-23 04:45:00,
2013-02-22 21:50:00,32.5,19.3,30.20,WNW,293,0.0,-999.0,58,0.00,,,0.00,Wunderground v.1.15,2013-02-23 04:50:00,
2013-02-22 21:55:00,32.3,19.2,30.20,WNW,293,0.0,-999.0,58,0.00,,,0.00,Wunderground v.1.15,2013-02-23 04:55:00,
2013-02-22 22:00:00,32.1,19.0,30.20,WNW,293,1.0,-999.0,58,0.00,,,0.00,Wunderground v.1.15,2013-02-23 05:00:00,
2013-02-22 22:05:00,32.0,18.9,30.20,WNW,293,0.0,-999.0,58,0.00,,,0.00,Wunderground v.1.15,2013-02-23 05:05:00,
2013-02-22 22:10:00,31.9,18.8,30.20,WNW,293,0.0,-999.0,58,0.00,,,0.00,Wunderground v.1.15,2013-02-23 05:10:00,
2013-02-22 22:15:00,31.7,18.6,30.21,WNW,293,0.0,-999.0,58,0.00,,,0.00,Wunderground v.1.15,2013-02-23 05:15:00,
2013-02-22 22:20:00,31.7,18.2,30.22,NW,315,1.0,-999.0,57,0.00,,,0.00,Wunderground v.1.15,2013-02-23 05:20:00,
2013-02-22 22:25:00,31.7,17.4,30.22,NW,315,1.0,-999.0,55,0.00,,,0.00,Wunderground v.1.15,2013-02-23 05:25:00,
2013-02-22 22:30:00,31.8,17.5,30.22,NW,315,0.0,-999.0,55,0.00,,,0.00,Wunderground v.1.15,2013-02-23 05:30:00,
2013-02-22 22:35:00,31.9,17.1,30.21,NW,315,1.0,-999.0,54,0.00,,,0.00,Wunderground v.1.15,2013-02-23 05:35:00,
2013-02-22 22:40:00,31.9,16.7,30.21,NW,315,1.0,-999.0,53,0.00,,,0.00,Wunderground v.1.15,2013-02-23 05:40:00,
2013-02-22 22:45:00,31.8,15.7,30.21,NW,315,1.0,-999.0,51,0.00,,,0.00,Wunderground v.1.15,2013-02-23 05:45:00,
2013-02-22 22:50:00,31.7,15.6,30.21,NW,315,0.0,-999.0,51,0.00,,,0.00,Wunderground v.1.15,2013-02-23 05:50:00,
2013-02-22 22:55:00,31.4,14.9,30.21,N/A,-737280,0.0,-999.0,50,0.00,,,0.00,Wunderground v.1.15,2013-02-23 05:55:00,
2013-02-22 23:00:00,31.2,14.2,30.21,NW,315,0.0,-999.0,49,0.00,,,0.00,Wunderground v.1.15,2013-02-23 06:00:00,
2013-02-22 23:05:00,31.0,14.0,30.21,NW,315,0.0,-999.0,49,0.00,,,0.00,Wunderground v.1.15,2013-02-23 06:05:00,
2013-02-22 23:10:00,30.8,13.9,30.21,NW,315,0.0,-999.0,49,0.00,,,0.00,Wunderground v.1.15,2013-02-23 06:10:00,
2013-02-22 23:15:00,30.7,13.3,30.21,NW,315,0.0,-999.0,48,0.00,,,0.00,Wunderground v.1.15,2013-02-23 06:15:00,
2013-02-22 23:20:00,30.7,13.8,30.21,NW,315,0.0,-999.0,49,0.00,,,0.00,Wunderground v.1.15,2013-02-23 06:20:00,
2013-02-22 23:25:00,30.6,13.7,30.21,NW,315,0.0,-999.0,49,0.00,,,0.00,Wunderground v.1.15,2013-02-23 06:25:00,
2013-02-22 23:30:00,30.4,14.0,30.22,NW,315,0.0,-999.0,50,0.00,,,0.00,Wunderground v.1.15,2013-02-23 06:30:00,
2013-02-22 23:35:00,30.2,14.2,30.21,NW,315,0.0,-999.0,51,0.00,,,0.00,Wunderground v.1.15,2013-02-23 06:35:00,
2013-02-22 23:40:00,30.0,14.5,30.22,N/A,-737280,0.0,-999.0,52,0.00,,,0.00,Wunderground v.1.15,2013-02-23 06:40:00,
2013-02-22 23:45:00,29.7,14.6,30.21,NW,315,0.0,-999.0,53,0.00,,,0.00,Wunderground v.1.15,2013-02-23 06:45:00,
2013-02-22 23:50:00,29.5,14.5,30.21,N/A,-737280,0.0,-999.0,53,0.00,,,0.00,Wunderground v.1.15,2013-02-23 06:50:00,
2013-02-22 23:55:00,29.2,14.6,30.21,NW,315,0.0,-999.0,54,0.00,,,0.00,Wunderground v.1.15,2013-02-23 06:55:00,